Weather Roundup
Issued by NWS

Home | Current Version | Previous Version | Text Only | Print | Product List | Glossary On
Versions: 1 2 3 4 5 6 7 8 9 10 11 12 13 14 15 16 17 18 19 20 21 22 23 24 25 26 27 28 29 30 31 32 33 34 35 36 37 38 39 40 41 42 43 44 45 46 47 48 49 50
000
NZUS93 KARX 270410
HRRWXR

CURRENT HOURLY OBSERVATIONS ACROSS
MUCH OF THE UPPER MISSISSIPPI VALLEY
NATIONAL WEATHER SERVICE LA CROSSE WI
1000 PM CST MON JAN 26 2015


...SOUTHEAST MINNESOTA...


CITY           SKY/WX    TMP DP  RH WIND       PRES   REMARKS
ROCHESTER      CLOUDY    35  30  82 NW13      29.90R WCI  26
ROCHESTER/MAYO CLOUDY    37  30  77 NW8       29.89S WCI  30
WINONA         CLOUDY    30  28  93 CALM      29.91R
AUSTIN         CLOUDY    36  30  80 NW12      29.91R WCI  27
ALBERT LEA     CLOUDY    37  32  81 NW8       29.92R WCI  31
DODGE CENTER   CLOUDY    36  32  87 NW10      29.90R WCI  28
PRESTON        CLOUDY    35  31  87 N9        29.88S WCI  27
OWATONNA       CLOUDY    36  30  80 NW8       29.93R WCI  29
FARIBAULT      CLOUDY    36  30  80 W7        29.94R WCI  30
$$

...ELSEWHERE IN MINNESOTA...


CITY           SKY/WX    TMP DP  RH WIND       PRES   REMARKS
MINNEAPOLIS    CLOUDY    38  28  67 NW12      29.93R WCI  30
INTNL FALLS    CLOUDY    25  21  85 W7        29.95R WCI  17
DULUTH         CLOUDY    28  23  81 N8        29.91R WCI  20
RED WING       CLOUDY    39  28  65 CALM      29.90S
REDWOOD FALLS  CLEAR     34  29  82 NW10      29.98R WCI  26
MANKATO        CLOUDY    36  27  69 NW12      29.96R WCI  27
WORTHINGTON    CLEAR     34  28  80 NW10      29.99R WCI  26
FAIRMONT       CLOUDY    36  28  75 NW14      29.96R WCI  27
$$

...SOUTHWEST WISCONSIN...


CITY           SKY/WX    TMP DP  RH WIND       PRES   REMARKS
LA CROSSE      CLOUDY    31  27  85 CALM      29.90R
PRAIRIE DU CHI CLOUDY    29  26  90 CALM      29.89S FOG
BOSCOBEL       CLOUDY    27  24  89 CALM      29.90R FOG
LONE ROCK      CLOUDY    25  23  92 CALM      29.90R
PLATTEVILLE    CLOUDY    26  25  96 CALM      29.87R
FORT MC COY    CLOUDY    27  26  99 CALM      29.90R FOG
CAMP DOUGLAS   CLOUDY    25  25 100 CALM      29.89R
VIROQUA        CLOUDY    27  27 100 NW3       29.86R
WIS DELLS      LGT SNOW  23  21  93 CALM      29.88R
$$

...ELSEWHERE IN WISCONSIN...


CITY           SKY/WX    TMP DP  RH WIND       PRES   REMARKS
MILWAUKEE      LGT SNOW  26  22  84 CALM      29.90F
MADISON        LGT SNOW  24  22  91 S5        29.88R FOG     WCI  18
GREEN BAY      LGT SNOW  25  23  92 N3        29.93R FOG
EAU CLAIRE     CLOUDY    27  24  89 CALM      29.90R
BLACK RVR FLS  CLOUDY    27  27 100 NW3       29.90R FOG
MEDFORD        CLOUDY    21  19  93 CALM      29.87R FOG
WAUSAU         CLOUDY    21  19  92 E6        29.87S WCI  13
WIS RAPIDS     CLOUDY    23  19  85 E3        29.90S
MARSHFIELD     CLOUDY    23  20  88 E5        29.87S WCI  17
RICE LAKE      CLOUDY    30  28  93 N6        29.91R WCI  24
$$

...NORTHEAST IOWA...


CITY           SKY/WX    TMP DP  RH WIND       PRES   REMARKS
DECORAH        CLOUDY    37  34  87 NW9       29.87R WCI  31
MASON CITY     CLOUDY    36  32  85 NW10      29.95R WCI  28
CHARLES CITY   CLEAR     36  34  93 NW10      29.91S WCI  28
OELWEIN        PTCLDY    36  34  93 NW14      29.90R WCI  27
$$

...ELSEWHERE IN IOWA...


CITY           SKY/WX    TMP DP  RH WIND       PRES   REMARKS
DES MOINES     PTCLDY    42  34  73 N9        29.97R
IOWA CITY      CLOUDY    39  35  86 NW9       29.91R WCI  33
FORT DODGE     MOCLDY    36  30  80 CALM      29.97S
$$

...NORTHERN ILLINOIS...


CITY           SKY/WX    TMP DP  RH WIND       PRES   REMARKS
CHICAGO-OHARE  LGT SNOW  26  24  92 SE5       29.90S FOG     WCI  20
CHICAGO-MIDWAY LGT SNOW  28  24  85 SE6       29.91S FOG     WCI  22
MOLINE         CLOUDY    32  30  92 CALM      29.87S
ROCKFORD       LGT SNOW  26  24  92 SE3       29.90R FOG
PEORIA         CLOUDY    32  30  92 CALM      29.89S FOG
$$

NOTE: "FAIR" INDICATES FEW OR NO CLOUDS BELOW 12,000 FEET WITH NO
SIGNIFICANT WEATHER AND/OR OBSTRUCTIONS TO VISIBILITY. WIND
SPEEDS ARE IN MILES-PER-HOUR.



USA.gov is the U.S. government's official web portal to all federal, state and local government web resources and services.